星链-3864 (STARLINK-3864 )

导读

STARLINK-3864是美国SpaceX公司星链星座的一员,于2022年5月6日发射升空,属于星链低轨卫星互联网星座组网卫星。星链项目旨在构建全球低轨卫星互联网,为全球提供高速低延迟宽带接入,该卫星运行在近地轨道,作为星座的一部分,承担着覆盖全球网络、为偏远地区及特殊场景提供网络服务的任务,是星链星座全球部署扩张中的一颗组网卫星。

Basic Information
目录编号:
52468
目录名称:
STARLINK-3864
国际标识:
2022-049T
轨道中心:
EARTH
卫星名称:
星链-3864
卫星全名:
星链-3864 (STARLINK-3864 )
卫星状态:
在轨 (已飞行1503 天)
发射日期:
2022-05-06 UTC
国别 :
美国 (US)
星等 :
--
Orbit Information
数据来源 国际轨道数据 AOE轨道数据
星历时间 2026-06-17T01:53:25+0800
22小时前
查看轨道信息
2026-06-17T01:00:00+0800
23小时前
查看轨道信息
半长轴 6917.987km 6917.893km
偏心率 0.0001332 0.0001191
轨道倾角 53.161° 53.163°
近地点辐角 94.884° 69.646°
升交点赤经 334.345° 334.518°
平近点角 265.230° 88.846°
近地点 538.928km 538.932km
远地点 540.772km 540.58km
周期 95.440分钟 95.438分钟
每日圈数 15.088054 15.08836
Detailed Information
固有亮度:
5
最大亮度:
2.5
卫星平台:
Starlink v1.5
覆盖范围:
全球
运营商:
太空探索技术公司
运营商所在国:
美国
制造商(研发单位):
太空探索技术公司
制造商所在国:
美国
使用方式:
暂无
Satellite Introduction
星链(Starlink)计划是由太空探索技术公司(SpaceX)提出的一个巨型低轨卫星互联网星座项目,计划在2019年至2024年间在太空搭建由约1.2万颗卫星组成的“星链”网络,其中1584颗将部署在地球上空550千米处的近地轨道,并从2020年开始工作。该卫星仍在工作。
2D Orbit Map
3D Orbit Map
Orbit Altitude Analysis Chart
Orbit Inclination Analysis Chart
Orbit Comprehensive Analysis Chart
View Comprehensive Chart